Retour au catalogue

STARLINK-4168

ActifCommunicationsVLEO
NORAD 52845·PAYLOAD·🇺🇸 United States

Lancé Jun 17, 2022 depuis Cape Canaveral Space Force Station

Loading…

Prochains Passages (prochaines 24 heures)

TLE

FraisSource: CelesTrak SupGP

Époque: Sep 15, 2026, 02:45 UTC

1 52845C 22062R   26258.11506944 -.00025087  00000+0 -80667-3 0  2580
2 52845  53.1568 253.8994 0001304  90.6647  61.7807 15.31716461    19

Suivez STARLINK-4168 en temps réel avec AllMySat

Download on the App Store